AirNav   Advertisement
 
 817 users online  

98FL Sand Lake Seaplane Base
Orlando/Buena Vista, Florida, USA

GOING TO ORLANDO/BUENA VISTA?


FAA INFORMATION EFFECTIVE 14 SEPTEMBER 2017

Location

FAA Identifier: 98FL
Lat/Long: 28-26-01.0220N / 081-29-29.2600W
28-26.017033N / 081-29.487667W
28.4336172 / -81.4914611
(estimated)
Elevation: 90 ft. / 27 m (estimated)
Variation: 03W (1985)
From city: 5 miles W of central business district of the associated city
Time zone: UTC -4 (UTC -5 during Standard Time)
Zip code: 32836

Seaplane Base Operations

Seaplane Base use: Private use, PERSONAL USE.
Activation date: 07/1990
Control tower: no
ARTCC: JACKSONVILLE CENTER
FSS: SAINT PETERSBURG FLIGHT SERVICE STATION
Attendance: UNATNDD
Segmented circle: no

Seaplane Base Communications

WX AWOS-3PT at ISM (9 nm S): 128.775 (407-847-0533)
WX ASOS at MCO (10 nm E): PHONE 407-855-5235
WX ASOS at ORL (11 nm NE): PHONE 407-658-6753

Nearby radio navigation aids

VOR radial/distance  VOR name  Freq  Var
ORLr232/10.5ORLANDO VORTAC112.2000E
LALr045/38.5LAKELAND VORTAC116.0001E

 
NDB name  Hdg/Dist  Freq  Var  ID
HERNY221/5.322106WOR --- .-.
SANFORD217/24.840805WSFB ... ..-. -...
LEESBURG148/28.433504WLEE .-.. . .

Seaplane Base Services

Runway Information

Runway 18/36

Dimensions: 2000 x 500 ft. / 610 x 152 m
Surface: water
RUNWAY 18  RUNWAY 36
Traffic pattern: leftleft

Seaplane Base Ownership and Management from official FAA records

Ownership: Privately-owned
Owner: SCOTT & PATTY NOLEN
9000 OGILVIE DRIVE
ORLANDO, FL 32819
Phone (520) 906-3178
Manager: SCOTT & PATTY NOLEN
9000 OGILVIE DRIVE
ORLANDO, FL 32819
Phone (520) 906-3178

Seaplane Base Operational Statistics

Aircraft based on the field: 1
Single engine airplanes: 1
    

Instrument Procedures

There are no published instrument procedures at 98FL.

Some nearby airports with instrument procedures:

KISM - Kissimmee Gateway Airport (9 nm S)
KMCO - Orlando International Airport (10 nm E)
KORL - Executive Airport (11 nm NE)
X04 - Orlando Apopka Airport (17 nm N)
KSFB - Orlando Sanford International Airport (25 nm NE)
 
Loc | Ops | Rwys | IFR | FBO | Links
Com | Nav | Svcs | Stats | Notes


 
Area around 98FL (Sand Lake Seaplane Base)
 
Road maps at: MapQuest Bing Google
 
Aerial photo
No photo
 
Sectional chart

 
Airport distance calculator
Flying to Sand Lake Seaplane Base? Find the distance to fly.

From to 98FL

Sunrise and sunset
Times for 26-Sep-2017
 Local
(UTC-4)
 Zulu
(UTC)
Morning civil twilight06:5410:54
Sunrise07:1711:17
Sunset19:1723:17
Evening civil twilight19:4123:41

Current date and time
Zulu (UTC)  26-Sep-2017 12:08:36
Local (UTC-4)  26-Sep-2017 08:08:36
 
METAR
KMCO 
8nm E 
261153Z 00000KT 10SM FEW220 FEW300 23/23 A2992 RMK AO2 SLP131 T02330228 10244 20233 53015 $
KISM 
10nm S 
261156Z 00000KT 10SM CLR 25/23 A2993 RMK AO2 SLP136 T02500228 10256 20239 53015
KORL 
11nm NE 
261153Z 00000KT 10SM CLR 24/23 A2992 RMK AO2 SLP135 T02440233 10256 20233 53016
TAF
KMCO 
8nm E 
260846Z 2609/2706 VRB02KT P6SM FEW030 FM261500 29004KT P6SM SCT035 FM262200 08004KT P6SM SCT040 SCT250
KISM 
10nm S 
260527Z 2606/2706 01003KT P6SM SKC FM261500 29004KT P6SM SCT035 FM262300 08004KT P6SM FEW040 SCT250
NOTAMs
Click for the latest NOTAMs
NOTAMs are issued by the DoD/FAA and will open in a separate window not controlled by AirNav.

 

 
 

Would you like to see your business listed on this page?

 If your business provides an interesting product or service to pilots, flight crews, aircraft, or users of the Sand Lake Seaplane Base, you should consider listing it here.  To start the listing process, click on the button below
 
Add a business
 

Other Pages about Sand Lake Seaplane Base

Update a link
 
Copyright © AirNav, LLC. All rights reserved. Privacy Policy  Contact